Weather in Guantanamo

Cuba     20°08′11″N   75°12′47″W
temp.,
°C
wind,
m/s
gust,
m/s
humid.,
%
clouds,
%
prec.,
mm/h
press.,
hPa
HPBL,
m
24 february, wed
wed2401:00+19nne129210 0.0 101723
04:00+18n22953 0.0 101530
07:00+19n229514 0.0 101887
10:00+27ne256028 0.0 10181099
13:00+30se444435 0.0 10171815
16:00+29sse334882 0.1 10151433
19:00+21ne227264 0.1 101741
22:00+19nne22900 0.0 101827
25 february, thu
thu2501:00+19n12945 0.0 101729
04:00+18n22948 0.0 101639
07:00+19n12918 0.0 101843
10:00+27ene47450 0.0 10191202
13:00+30ese45290 0.0 10171834
16:00+29e44300 0.0 10161421
19:00+20ene34702 0.0 101779
22:00+18n22890 0.0 101729
26 february, fri
fri2601:00+18n22941 0.0 101643
04:00+18nne12947 0.0 101529
07:00+19ne148916 0.0 1017147
10:00+27e46460 0.0 10181379
13:00+30ese45360 0.0 10162011
16:00+28ese55430 0.0 10151455
19:00+20ne22786 0.0 101763
22:00+18nne23928 0.0 1018106
27 february, sat
sat2701:00+18n12944 0.0 101854
04:00+18nne23934 0.0 101690
07:00+20ene211842 0.0 1018565
10:00+28e59510 0.0 10191352
13:00+30ene69310 0.0 10171575
16:00+28ene57460 0.0 10161131
19:00+20ne23810 0.0 1017108
22:00+19n13910 0.0 1018126
28 february, sun
sun2801:00+19nne13910 0.0 1017142
04:00+20ene310860 0.0 1016455
07:00+21ne16870 0.0 1018313
10:00+28e712491 0.0 10191517
13:00+31e711320 0.0 10171825
16:00+28ene610330 0.0 10161286
19:00+21ne27740 0.0 1016208
22:00+19nne24850 0.0 1018145